STARLINK-36896, 68092

Orbit data source: Space-Track

STARLINK-36896, 68092 is a payload satellite owned by SpaceX/Seattle (US) in LEO that was launched on Wed, 04 Mar 2026 UTC via an FALCON 9 launch vehicle from the Air Force Eastern Test Range (AFETR). Payload-class satellites include a variety of spacecraft equipped with specific instruments for various scientific and technological missions. These include communications satellites like Starlink; space stations such as the ISS; scientific satellites like the Hubble; Earth observation satellites from companies like Planet Labs, Umbra, and HawkEye 360; GPS; miniature CubeSats for education and research; and military/defense satellites.

Loading next visibility...
Identifier
68092, 2026-042Z
Orbit
LEO
Country
Flag of USUS
Related business
Manufacturer
SpaceX/Seattle
Mission
Operational Commercial Communications
Bus & Motor
STARLINK V2MO, Unknown motor
Mass
575 kg wet, ~530 kg dry
Launch date (UTC)
2026-03-04 (2 months ago)
Launch vehicle
FALCON 9
Launch site
Air Force Eastern Test Range (AFETR)
Object type
Payload
Rocket body
Debris
Shape & HBR
Box + 2 Pan, 17.7 m
Radar Cross Section
36.964 m²

Expand to show TLE details & history
Last TLE update: 6 hours ago

TLE from 6 hours ago
0 STARLINK-36896
1 68092U 26042Z   26119.50002315 -.01855036  00000-0 -50003-1 0  9993
2 68092  53.1601 302.7668 0000795 125.1613 236.7343 15.40579188  5994
Epoch: 2026-04-29T12:00Z
TLE epoch observation values (Epoch: 2026-04-29T12:00:02.000Z)
Latitude
1.43933°
Longitude
-93.629°
Altitude
445.425 km
Speed
7.646 km/s
True Right ascension
20h 15m 21s
True Declination
1° 25' 49"
Sunlit
Object was in daylight at epoch
Visualization orbit readout
Latitude
Unknown
Longitude
Unknown
Altitude
Unknown
Speed
Unknown
Apparent Right ascension
Unknown
Apparent Declination
Unknown
Sunlit
N/A
Visualization observer readout
Local Sidereal Time
01:14:47
Azimuth
Unknown
Elevation
Unknown
Doppler factor
Unknown
Orbital elements
Apogee altitude
445.199 km
Perigee altitude
444.114 km
Semi-major axis
6,822.793 km
Eccentricity
0.00008
Inclination
53.1601°
RAAN
302.7668°
Arg. of periapsis
125.1613°
True anomaly
236.72668°
Mean anomaly
236.7343°
Eccentric anomaly
236.73049°
Mean motion
3.85123 °/min
Orbital period
93.48 mins
BSTAR
-0.050003
Loading maneuver chart data...
Computing Atmospheric mass density...
Loading historical data...
Loading historical data...
Loading historical data...
Loading historical data...
Loading historical data...
Loading historical data...
Loading historical data...

Documentation

Showing up to 5 results
|